When you browse on this site, cookies collect data to enhance your experience and personalize the content and advertising you see.
Visit our Privacy Policy to learn more. By continuing to use the site, you agree to this use of cookies and data.
  • en France
  • Liste des pays
  • À 7 jours
  • Température de l'eau
  • Carte satellitaire
  • Carte météo
  • Widgets météo
  • user-avatar
    Se connecter

    Météo par heure à Lezhё

    Ce jour, 23 Janvier, Mercredi

    Heure Température Précipitation Vent Pression Humidité
    00:00 +7°C° 0.8 mm 3 m/s 728 mmHg 90%
    01:00 +6°C° 0 mm 4 m/s 728 mmHg 91%
    02:00 +5°C° 1 mm 3 m/s 727 mmHg 91%
    03:00 +5°C° 1 mm 3 m/s 727 mmHg 91%
    04:00 +5°C° 1 mm 3 m/s 727 mmHg 91%
    05:00 +5°C° 0.8 mm 3 m/s 727 mmHg 89%
    06:00 +5°C° 0.8 mm 3 m/s 726 mmHg 87%
    07:00 +5°C° 0.8 mm 3 m/s 726 mmHg 86%
    08:00 +7°C° 0.4 mm 3 m/s 726 mmHg 83%
    09:00 +8°C° 0.4 mm 3 m/s 726 mmHg 79%
    10:00 +8°C° 0.4 mm 3 m/s 726 mmHg 76%
    11:00 +9°C° 0.2 mm 3 m/s 725 mmHg 73%
    12:00 +9°C° 0.2 mm 2 m/s 725 mmHg 70%
    13:00 +10°C° 0.2 mm 2 m/s 724 mmHg 67%
    14:00 +9°C° 0 mm 2 m/s 724 mmHg 70%
    15:00 +10°C° 0 mm 1 m/s 723 mmHg 73%
    16:00 +8°C° 0 mm 0 m/s 723 mmHg 75%
    17:00 +8°C° 0 mm 0 m/s 722 mmHg 77%
    18:00 +8°C° 0 mm 1 m/s 722 mmHg 78%
    19:00 +8°C° 0 mm 1 m/s 722 mmHg 80%
    20:00 +7°C° 0.1 mm 1 m/s 722 mmHg 80%
    21:00 +7°C° 0.1 mm 1 m/s 721 mmHg 81%
    22:00 +7°C° 0.1 mm 1 m/s 721 mmHg 81%
    23:00 +7°C° 0.2 mm 1 m/s 721 mmHg 81%

    Demain, 24 Janvier, Jeudi

    Heure Température Précipitation Vent Pression Humidité
    00:00 +6°C° 0.2 mm 2 m/s 721 mmHg 82%
    01:00 +5°C° 0.2 mm 2 m/s 720 mmHg 82%
    02:00 +6°C° 0.1 mm 1 m/s 720 mmHg 82%
    03:00 +6°C° 0.1 mm 1 m/s 720 mmHg 83%
    04:00 +6°C° 0.1 mm 1 m/s 720 mmHg 83%
    05:00 +6°C° 0.4 mm 1 m/s 720 mmHg 84%
    06:00 +6°C° 0.4 mm 1 m/s 720 mmHg 86%
    07:00 +6°C° 0.4 mm 1 m/s 720 mmHg 87%
    08:00 +6°C° 0.1 mm 1 m/s 720 mmHg 84%
    09:00 +7°C° 0.1 mm 1 m/s 721 mmHg 82%
    10:00 +8°C° 0.1 mm 1 m/s 721 mmHg 79%
    11:00 +8°C° 0 mm 1 m/s 721 mmHg 74%
    12:00 +9°C° 0 mm 1 m/s 721 mmHg 70%
    13:00 +10°C° 0 mm 1 m/s 721 mmHg 65%
    14:00 +9°C° 0 mm 1 m/s 721 mmHg 67%
    15:00 +8°C° 0 mm 2 m/s 721 mmHg 69%
    16:00 +8°C° 0 mm 2 m/s 721 mmHg 71%
    17:00 +7°C° 0 mm 2 m/s 721 mmHg 73%
    18:00 +4°C° 0 mm 3 m/s 722 mmHg 75%
    19:00 +3°C° 0 mm 3 m/s 722 mmHg 77%
    20:00 +3°C° 0 mm 4 m/s 721 mmHg 75%
    21:00 +3°C° 0 mm 4 m/s 721 mmHg 73%
    22:00 +2°C° 0 mm 5 m/s 721 mmHg 70%
    23:00 +2°C° 0 mm 5 m/s 720 mmHg 70%

    Après-demain, 25 Janvier, Vendredi

    Heure Température Précipitation Vent Pression Humidité
    00:00 +2°C° 0 mm 6 m/s 720 mmHg 70%
    01:00 +2°C° 0 mm 7 m/s 720 mmHg 70%
    02:00 +2°C° 0.3 mm 6 m/s 720 mmHg 71%
    03:00 +2°C° 0.3 mm 6 m/s 720 mmHg 72%
    04:00 +2°C° 0.3 mm 5 m/s 719 mmHg 73%
    05:00 +2°C° 0.1 mm 5 m/s 720 mmHg 74%
    06:00 +1°C° 0.1 mm 5 m/s 720 mmHg 76%
    07:00 +1°C° 0.1 mm 5 m/s 720 mmHg 77%
    08:00 +1°C° 0.3 mm 4 m/s 721 mmHg 77%
    09:00 +3°C° 0.3 mm 4 m/s 721 mmHg 78%
    10:00 +3°C° 0.3 mm 4 m/s 721 mmHg 78%
    11:00 +4°C° 0.1 mm 4 m/s 721 mmHg 76%
    12:00 +4°C° 0.1 mm 4 m/s 721 mmHg 74%
    13:00 +5°C° 0.1 mm 4 m/s 721 mmHg 72%
    14:00 +3°C° 0 mm 5 m/s 722 mmHg 72%
    15:00 +3°C° 0 mm 5 m/s 722 mmHg 72%
    16:00 +3°C° 0 mm 5 m/s 722 mmHg 72%
    17:00 +2°C° 0 mm 5 m/s 722 mmHg 72%
    18:00 +1°C° 0 mm 5 m/s 723 mmHg 72%
    19:00 +1°C° 0 mm 5 m/s 723 mmHg 72%
    20:00 0°C° 0 mm 4 m/s 723 mmHg 72%
    21:00 0°C° 0 mm 4 m/s 724 mmHg 72%
    22:00 0°C° 0 mm 4 m/s 724 mmHg 72%
    23:00 0°C° 0 mm 4 m/s 724 mmHg 72%

    26 Janvier, Samedi

    Heure Température Précipitation Vent Pression Humidité
    00:00 -1°C° 0 mm 4 m/s 724 mmHg 72%
    01:00 -1°C° 0 mm 4 m/s 724 mmHg 72%
    02:00 -1°C° 0 mm 4 m/s 724 mmHg 72%
    03:00 -1°C° 0 mm 4 m/s 724 mmHg 71%
    04:00 -1°C° 0 mm 4 m/s 724 mmHg 70%
    05:00 -1°C° 0 mm 4 m/s 725 mmHg 70%
    06:00 -1°C° 0 mm 4 m/s 725 mmHg 70%
    07:00 -2°C° 0 mm 4 m/s 726 mmHg 70%
    08:00 0°C° 0 mm 4 m/s 726 mmHg 66%
    09:00 +1°C° 0 mm 4 m/s 726 mmHg 62%
    10:00 +4°C° 0 mm 4 m/s 727 mmHg 59%
    11:00 +5°C° 0 mm 4 m/s 727 mmHg 58%
    12:00 +5°C° 0 mm 4 m/s 727 mmHg 57%
    13:00 +6°C° 0 mm 4 m/s 727 mmHg 57%
    14:00 +5°C° 0 mm 4 m/s 727 mmHg 59%
    15:00 +5°C° 0 mm 4 m/s 727 mmHg 62%
    16:00 +4°C° 0 mm 4 m/s 727 mmHg 64%
    17:00 +3°C° 0 mm 4 m/s 728 mmHg 66%
    18:00 +1°C° 0 mm 4 m/s 728 mmHg 69%
    19:00 0°C° 0 mm 4 m/s 729 mmHg 71%
    20:00 +1°C° 0 mm 3 m/s 729 mmHg 71%
    21:00 +1°C° 0 mm 3 m/s 729 mmHg 72%
    22:00 0°C° 0 mm 3 m/s 729 mmHg 72%
    23:00 0°C° 0 mm 3 m/s 729 mmHg 72%

    27 Janvier, Dimanche

    Heure Température Précipitation Vent Pression Humidité
    00:00 0°C° 0 mm 3 m/s 729 mmHg 72%
    01:00 0°C° 0 mm 3 m/s 729 mmHg 72%
    02:00 -1°C° 0 mm 3 m/s 729 mmHg 72%
    03:00 -1°C° 0 mm 2 m/s 729 mmHg 71%
    04:00 -1°C° 0 mm 2 m/s 729 mmHg 71%
    05:00 -1°C° 0 mm 2 m/s 729 mmHg 70%
    06:00 -1°C° 0 mm 2 m/s 728 mmHg 70%
    07:00 -1°C° 0 mm 2 m/s 728 mmHg 69%
    08:00 +2°C° 0 mm 2 m/s 728 mmHg 64%
    09:00 +5°C° 0 mm 1 m/s 728 mmHg 58%
    10:00 +6°C° 0 mm 1 m/s 728 mmHg 53%
    11:00 +7°C° 0 mm 1 m/s 728 mmHg 51%
    12:00 +8°C° 0 mm 1 m/s 727 mmHg 50%
    13:00 +8°C° 0 mm 1 m/s 727 mmHg 48%
    14:00 +8°C° 0 mm 1 m/s 727 mmHg 53%
    15:00 +7°C° 0 mm 1 m/s 727 mmHg 57%
    16:00 +7°C° 0 mm 1 m/s 727 mmHg 62%
    17:00 +6°C° 0 mm 1 m/s 727 mmHg 64%
    18:00 +5°C° 0 mm 1 m/s 727 mmHg 67%
    19:00 +3°C° 0 mm 2 m/s 728 mmHg 69%
    20:00 +3°C° 0 mm 2 m/s 728 mmHg 69%
    21:00 +2°C° 0 mm 2 m/s 728 mmHg 69%
    22:00 +2°C° 0 mm 2 m/s 728 mmHg 68%
    23:00 +2°C° 0 mm 2 m/s 728 mmHg 68%

    28 Janvier, Lundi

    Heure Température Précipitation Vent Pression Humidité
    00:00 +1°C° 0 mm 3 m/s 728 mmHg 67%
    01:00 +1°C° 0 mm 3 m/s 727 mmHg 66%
    02:00 +1°C° 0 mm 3 m/s 727 mmHg 68%
    03:00 +1°C° 0 mm 3 m/s 727 mmHg 69%
    04:00 +1°C° 0 mm 3 m/s 726 mmHg 70%
    05:00 +2°C° 0.1 mm 3 m/s 726 mmHg 70%
    06:00 +2°C° 0.1 mm 3 m/s 726 mmHg 70%
    07:00 +3°C° 0.1 mm 3 m/s 726 mmHg 70%
    08:00 +3°C° 0.5 mm 3 m/s 726 mmHg 70%
    09:00 +4°C° 0.5 mm 3 m/s 726 mmHg 70%
    10:00 +5°C° 0.5 mm 3 m/s 726 mmHg 71%
    11:00 +5°C° 0.2 mm 3 m/s 725 mmHg 70%
    12:00 +7°C° 0.2 mm 3 m/s 724 mmHg 69%
    13:00 +8°C° 0.2 mm 3 m/s 724 mmHg 68%
    14:00 +7°C° 1 mm 3 m/s 724 mmHg 73%
    15:00 +6°C° 1 mm 2 m/s 724 mmHg 78%
    16:00 +6°C° 1 mm 2 m/s 723 mmHg 82%
    17:00 +6°C° 0.7 mm 2 m/s 724 mmHg 82%
    18:00 +4°C° 0.7 mm 3 m/s 724 mmHg 83%
    19:00 +4°C° 0.7 mm 4 m/s 724 mmHg 83%
    20:00 +4°C° 1.3 mm 3 m/s 724 mmHg 85%
    21:00 +4°C° 1.3 mm 3 m/s 725 mmHg 86%
    22:00 +4°C° 1.3 mm 3 m/s 725 mmHg 88%
    23:00 +4°C° 0.6 mm 3 m/s 725 mmHg 87%
    Voir plus